CW2550 Weather Reports


Display with metric or nautical units.
time (UTC)temp
F
wind
direction
speed
MPH
gust
MPH
rain 1hr
in
rain 24hr
in
rain mn
in
humidity
%
barometer
mb
20200219094904 0 315 0.0 0.0 0.00 0.06 0.00 75 1034.3
20200219091903 1 315 0.0 0.0 0.00 0.06 0.00 75 1034.0
20200219084903 1 298 0.0 0.0 0.00 0.06 0.00 73 1034.0
20200219081902 1 328 0.0 0.0 0.00 0.06 0.00 72 1034.0
20200219074900 1 337 0.0 0.0 0.00 0.06 0.00 71 1033.5
20200219071900 2 326 0.0 0.0 0.00 0.06 0.00 69 1033.1
20200219064859 2 313 0.0 1.0 0.00 0.06 0.00 70 1032.9
20200219061858 3 288 0.0 0.0 0.00 0.06 0.00 72 1032.4
20200219054857 4 298 0.0 0.0 0.00 0.06 0.00 71 1031.7
20200219051856 4 317 0.0 0.0 0.00 0.06 0.00 71 1031.6
20200219044855 5 323 0.0 0.0 0.00 0.06 0.00 71 1031.5
20200219041854 6 338 0.0 0.0 0.00 0.06 0.00 71 1030.9
20200219034923 7 269 0.0 0.0 0.00 0.06 0.00 70 1030.8
20200219031923 7 304 0.0 0.0 0.00 0.06 0.00 71 1030.5
20200219024922 8 292 0.0 0.0 0.00 0.06 0.00 72 1030.1
20200219021921 9 289 0.0 1.0 0.00 0.06 0.06 72 1029.5
20200219011919 10 277 0.0 1.0 0.00 0.06 0.06 71 1029.0
20200219004918 11 272 0.0 1.0 0.00 0.06 0.06 71 1028.5
20200219001917 12 285 0.0 0.0 0.00 0.06 0.06 70 1027.9
20200218234917 13 315 0.0 0.0 0.00 0.06 0.06 67 1027.6
20200218231916 14 293 0.0 1.0 0.00 0.06 0.06 66 1027.0
20200218224915 15 303 0.0 5.0 0.00 0.06 0.06 67 1026.2
20200218221914 17 313 0.0 7.0 0.00 0.06 0.06 69 1025.6
20200218214914 18 295 0.0 1.0 0.00 0.06 0.06 71 1025.4
20200218211913 18 311 0.0 2.0 0.00 0.06 0.06 69 1025.1
20200218204911 18 345 0.0 1.0 0.00 0.06 0.06 68 1024.7
20200218201911 18 355 0.0 4.0 0.00 0.06 0.06 68 1024.3
20200218194910 19 221 0.0 1.0 0.00 0.06 0.06 71 1023.9
20200218191909 19 257 0.0 0.0 0.00 0.06 0.06 70 1023.6
20200218184908 19 268 0.0 1.0 0.00 0.06 0.06 71 1023.3
20200218181907 19 215 0.0 1.0 0.00 0.06 0.06 71 1023.5
20200218174906 18 323 0.0 2.0 0.02 0.06 0.06 73 1023.5
20200218171906 18 290 0.0 1.0 0.03 0.06 0.06 73 1023.4
20200218164905 18 276 0.0 3.0 0.02 0.04 0.04 74 1022.7
20200218161904 18 320 0.0 4.0 0.03 0.03 0.03 76 1022.5
20200218154904 18 306 0.0 1.0 0.02 0.02 0.02 77 1022.3
20200218151902 18 290 0.0 0.0 0.00 0.00 0.00 80 1021.9
20200218144901 17 330 0.0 0.0 0.00 0.00 0.00 81 1021.3
20200218141900 17 317 0.0 0.0 0.00 0.00 0.00 82 1020.7
20200218134900 17 271 0.0 1.0 0.00 0.00 0.00 84 1020.2
20200218131859 16 296 0.0 1.0 0.00 0.00 0.00 86 1019.7
20200218124858 16 289 0.0 4.0 0.00 0.00 0.00 87 1019.2
20200218121857 16 273 0.0 0.0 0.00 0.00 0.00 87 1018.6
20200218114856 17 271 0.0 0.0 0.00 0.00 0.00 87 1018.0
20200218111855 17 302 0.0 1.0 0.00 0.00 0.00 87 1017.6
20200218104924 18 317 0.0 1.0 0.00 0.00 0.00 87 1016.9
20200218101854 17 302 0.0 2.0 0.00 0.00 0.00 87 1016.5